User: anonymous   Login
Location: Oshawa
(43.9000°N, 78.8670°W)
Time: 22:19:00
(UTC-04:00)
Language:

Envisat - Orbit

View from above orbital plane
View from above orbital plane
View from above satellite
View from above satellite

Ground track
Ground track

The orbit data is extracted from the following two-line orbital elements,

1 27386U 02009A   14295.77916947  .00000094  00000-0  45279-4 0  5707
2 27386 098.3698 357.9061 0001151 074.0480 286.0789 14.37741737661910
Epoch (UTC): 22 October 2014 18:42:00
Eccentricity: 0.0001151
inclination: 98.3698°
perigee height: 765 km
apogee height: 767 km
right ascension of ascending node: 357.9061°
argument of perigee: 74.0480°
revolutions per day: 14.37741737
mean anomaly at epoch: 286.0789°
orbit number at epoch: 66191

The dashed part of the orbit path shows where the satellite is in the earth's shadow,  

DLR